Regional Weather Roundup
Issued by NWS Newport/Morehead, NC

Current Version | Previous Version | Text Only | Print | Product List | Glossary Off
Versions: 1 2 3 4 5 6 7 8 9 10 11 12 13 14 15 16 17 18 19 20 21 22 23 24 25 26 27 28 29 30 31 32 33 34 35 36 37 38 39 40 41 42 43 44 45 46 47 48 49 50
000 ASUS42 KMHX 302210 RWRMHX WEATHER ROUNDUP FOR EASTERN NORTH CAROLINA NATIONAL WEATHER SERVICE NEWPORT/MOREHEAD CITY NC 600 PM EDT TUE SEP 30 2014 NOTE: "FAIR" INDICATES FEW OR NO CLOUDS BELOW 12,000 FEET WITH NO SIGNIFICANT WEATHER AND/OR OBSTRUCTIONS TO VISIBILITY NCZ015>017-031-032-045>047-102-103-302300- NORTH COAST CITY SKY/WX TMP DP RH WIND PRES REMARKS EDENTON PTCLDY 72 64 76 E5 29.86R ELIZABETH CITY CLEAR 72 62 71 NE10 29.86R KITTY HAWK CLEAR 71 64 79 N3 29.85R MANTEO PTCLDY 71 64 77 NE9 29.86R $$ NCZ045>047-081-094-103-104-302300- CENTRAL COAST CITY SKY/WX TMP DP RH WIND PRES REMARKS FRISCO CLEAR 71 65 81 NE8G18 29.83R SWANQUARTER N/A 75 N/A N/A NE3G9 29.79S $$ NCZ095-097-098-100-101-302300- SOUTHERN COAST CITY SKY/WX TMP DP RH WIND PRES REMARKS BEAUFORT CLEAR 76 64 66 NE8 29.84R CEDAR ISLAND N/A 73 N/A N/A NE15 29.88S JACKSONVILLE PTSUNNY 78 63 59 NE7 29.83R NEWPORT NOT AVBL PINEY ISLAND CLEAR 76 64 66 NE12 29.84R HAZE WILMINGTON PTSUNNY 80 65 59 N8 29.83R $$ NCZ011>013-027>030-043-044-078>080-089-090>093-098-302300- COASTAL PLAIN CITY SKY/WX TMP DP RH WIND PRES REMARKS AHOSKIE CLEAR 70 64 82 CALM 29.87S CLINTON SUNNY 77 66 68 N3 29.86R ELIZABETHTOWN SUNNY 78 64 60 CALM 29.85R GOLDSBORO SUNNY 76 68 74 CALM 29.84R GREENVILLE MOSUNNY 77 64 65 N6 29.88R HAVELOCK CLEAR 75 65 70 NE7 29.85R KENANSVILLE MOSUNNY 78 62 58 N5 29.86R KINSTON MOSUNNY 77 64 65 N7 29.86R NEW BERN MOSUNNY 78 63 59 N5 29.85R RICHLANDS SUNNY 79 61 53 N7 29.84S ROANOKE RAPIDS NOT AVBL ROCKY MOUNT SUNNY 72 64 76 N6 29.87S WASHINGTON CLEAR 76 63 63 N6 29.85R WHITEVILLE MOSUNNY 78 64 63 N3 29.84R $$ AMZ130-135-150-152-154-156-158-170-250-252-270-ANZ085-086-088-633-658-670-302300- MARINE OBSERVATIONS STATION/POSITION TIME TEMP WIND PRES WAVE SWELL AIR SEA DIR/SP/G HT/PER HT/PER (UTC) (F) (DEG/KT/KT) (MB) (FT/S) (FT/S) CHESAPEAKE LIGHT 2100 70 40/ 11/ 12 1011.7 BUOY 44014 2200 71 74 20/ 12/ 14 1010.3 2/ 8 2/ 8 DUCK 2200 71 73 20/ 11/ 11 1010.2 2E DUCK 2200 N/A 2/ 8 OREGON INLET 2200 72 73 20/ 9/ 14 1010.6 BUOY 44095 2200 74 N/A 3/ 4 20E OREGON INLET NOT AVBL HATTERAS CG 2200 72 76 20/ 13/ 18 1010.6 DIAMOND BUOY 2200 74 350/ 17/ 19 1009.4 4/ 6 2/ 7 CAPE LOOKOUT 2100 75 40/ 13/ 15 1009.8 BEAUFORT LAB 2200 76 75 40/ 7/ 12 1009.7 30 SE NEW RIVER 2200 76 80 50/ 14/ 16 1009.4 3/ 8 2/ 8 5 SE WRIGHTSVILL 2100 72 76 100/ 8/ 10 N/A BUOY 41002 2144 76 81 90/ 14/ 17 1007.1 3/ 7 2/ 7 BUOY 41004 2200 76 81 20/ 14/ 17 1009.7 4/ 6 2/ 9 $$

USA.gov is the U.S. government's official web portal to all federal, state and local government web resources and services.